Glen Ellen, California
Current Conditions -  °F | °C
As of 2:35 AM on Monday 20 Oct 2014 (Local Time) from KO69 Reporting Station
Overcast Overcast  
Wind Chill: 59°   Ceiling: 1700
Heat Index: 59°   Visibility: 10mi
Dew Point: 57°   Wind: 0mph
Humidity: 94%   Direction: NA
Pressure: 29.94"   Gusts: NA
Location:  38.36°N, 122.53°W
Report Text: KO69 200935Z AUTO 00000KT 10SM OVC017 15/14 A2994 RMK AO1
Loading
Personal Weather Stations






























Interactive Weather Map
Tropical Storm Tracking
New forecast layout! Learn more

10-Day Weather Forecast

Advertisements
Track Severe Weather on mobile